Hourly Data Report for January 24, 2020

SATURNA ISLAND CS
BRITISH COLUMBIA
Current Station Operator: ECCC - MSC

48°47'02.067" N
123°02'41.082" W
24.40 m
1017101
71473
WEZ

Download Data

Hourly Data (January 2020)
Hourly Data Report for January 24, 2020
TIME
LST
Temp Definition
°C
Dew Point Definition
°C
Rel Hum Definition
%
Precip. Amount Definition
mm

Wind Dir Definition
10's deg

Wind Spd Definition
km/h
Visibility Definition
km
Stn Press Definition
kPa
Hmdx Definition


Wind Chill Definition


Weather Definition


00:00 10.2 8.7 90 0.0 18 35   100.53     LegendNANA
01:00 10.0 8.7 92 0.0 17 24   100.47     LegendNANA
02:00 9.7 8.7 93 0.2 18 17   100.48     LegendNANA
03:00 9.6 8.6 94 0.2 16 24   100.40     LegendNANA
04:00 9.6 8.8 95 0.0 20 20   100.42     LegendNANA
05:00 9.0 8.2 95 0.2 22 23   100.49     LegendNANA
06:00 8.7 8.0 96 1.4 23 12   100.46     LegendNANA
07:00 8.4 7.7 96 0.0 18 22   100.56     LegendNANA
08:00 8.9 8.2 96 0.0 15 23   100.60     LegendNANA
09:00 9.2 8.4 95 0.0 15 22   100.63     LegendNANA
10:00 9.4 8.1 92 0.0 17 18   100.65     LegendNANA
11:00 7.7 6.4 92 9.6 19 8   100.75     LegendNANA
12:00 8.3 7.3 93 1.2 20 34   100.73     LegendNANA
13:00 9.8 7.5 86 0.0 21 26   100.85     LegendNANA
14:00 10.3 7.7 84 0.0 19 28   100.88     LegendNANA
15:00 9.7 7.5 86 0.0 20 27   100.97     LegendNANA
16:00 9.1 7.5 90 0.2 20 24   101.01     LegendNANA
17:00 8.4 7.2 92 0.2 18 17   101.05     LegendNANA
18:00 7.7 6.4 92 0.0 19 14   101.12     LegendNANA
19:00 8.5 7.1 91 0.0 15 17   101.16     LegendNANA
20:00 8.3 6.9 91 0.0 16 18   101.18     LegendNANA
21:00 8.0 6.8 92 0.0 18 14   101.18     LegendNANA
22:00 8.5 7.0 91 0.0 18 20   101.19     LegendNANA
23:00 8.5 6.6 88 0.0 16 16   101.14     LegendNANA

Notes on Data Quality.

Legend

  • E = Estimated
  • M = Missing
  • NA = Not Available*
  • [empty] = Indicates an unobserved value
Date modified: